📊 Raw Sensor Data

Showing records 32251 to 32275 of 84,681 total

ID Distance (ft) Battery V Battery A Int Temp (°F) Int Humid (%) Ext Temp (°F) Solar V RSSI SNR Time Stamp
52443 15.4 4.05 0 85 42 80 5.10 -73 8 09/19/2025 11:30 AM
52442 -- 4.04 0 84 42 81 5.10 -74 9 09/19/2025 11:15 AM
52441 14.0 4.05 0 83 42 83 5.10 -74 8 09/19/2025 11:00 AM
52440 13.9 4.04 0 81 41 81 5.10 -74 7 09/19/2025 10:45 AM
52439 14.1 4.04 0 81 41 78 5.10 -72 8 09/19/2025 10:30 AM
52438 14.0 4.04 0 79 41 78 5.10 -71 8 09/19/2025 10:15 AM
52437 15.2 4.04 0 76 42 79 5.10 -72 8 09/19/2025 10:00 AM
52436 15.2 4.04 0 74 42 75 5.10 -70 8 09/19/2025 09:45 AM
52435 15.1 4.04 0 72 42 72 5.10 -71 8 09/19/2025 09:30 AM
52434 15.1 4.06 0 70 42 70 5.10 -70 7 09/19/2025 09:15 AM
52433 15.1 4.04 0 69 42 71 5.10 -70 8 09/19/2025 09:00 AM
52432 15.0 4.05 0 67 42 66 5.10 -70 8 09/19/2025 08:45 AM
52431 15.0 4.11 39 65 42 65 4.50 -69 8 09/19/2025 08:30 AM
52430 13.6 4.08 40 64 42 64 4.50 -70 8 09/19/2025 08:15 AM
52429 14.9 4.07 -7 62 43 62 4.50 -70 8 09/19/2025 08:00 AM
52428 13.7 4.05 5 61 43 62 4.50 -71 8 09/19/2025 07:45 AM
52427 13.7 4.03 0 60 43 61 4.50 -71 8 09/19/2025 07:30 AM
52426 15.0 4.03 -7 60 44 61 4.50 -71 8 09/19/2025 07:15 AM
52425 14.9 4.02 -10 59 44 60 4.30 -70 7 09/19/2025 07:00 AM
52424 14.9 3.97 -5 59 44 60 0.70 -70 8 09/19/2025 06:45 AM
52423 14.9 4.03 -5 59 44 60 0.00 -70 8 09/19/2025 06:30 AM
52422 14.9 4.03 -5 59 45 60 0.00 -70 8 09/19/2025 06:15 AM
52421 14.9 3.98 -5 59 45 59 0.00 -71 8 09/19/2025 06:00 AM
52420 14.9 3.98 -5 59 45 60 0.10 -71 7 09/19/2025 05:45 AM
52419 14.9 3.98 -5 60 45 61 0.00 -70 8 09/19/2025 05:30 AM